View from above orbital plane
|
View from above satellite
|
Ground track
|
The orbit data is extracted from the following two-line orbital elements,
1 14781U 84021B 21016.74333993 .00000083 00000-0 16203-4 0 9994
2 14781 97.5897 24.0880 0007569 211.8323 148.2435 14.83237710963446
Epoch (UTC): | 16 January 2021 17:50:24 |
Eccentricity: | 0.0007569 |
inclination: | 97.5897° |
perigee height: | 614 km |
apogee height: | 624 km |
right ascension of ascending node: | 24.0880° |
argument of perigee: | 211.8323° |
revolutions per day: | 14.83237710 |
mean anomaly at epoch: | 148.2435° |
orbit number at epoch: | 96344 |
The dashed part of the orbit path shows where the satellite is in the earth's shadow,
|
|